User: anonymous   Login
Location: Darlington Observatory
(36.4817°N, 105.8156°W)
Time: 21:48:33
(UTC-06:00)
Language:

MOS 1 - Orbit

View from above orbital plane
View from above orbital plane
View from above satellite
View from above satellite

Ground track
Ground track

The orbit data is extracted from the following two-line orbital elements,

1 17527U 87018A   14295.09753066  .00000201  00000-0  16084-3 0  6603
2 17527 099.2296 277.8042 0009618 080.4192 318.8827 14.02314820413627
Epoch (UTC): 22 October 2014 02:20:26
Eccentricity: 0.0009618
inclination: 99.2296°
perigee height: 879 km
apogee height: 893 km
right ascension of ascending node: 277.8042°
argument of perigee: 80.4192°
revolutions per day: 14.02314820
mean anomaly at epoch: 318.8827°
orbit number at epoch: 41362

The dashed part of the orbit path shows where the satellite is in the earth's shadow,  

DLR